Location: Braden Valley Church
(38.0012°N, 88.6106°W)
Time: 08:11:15
(UTC+00:00)

CZ-4B R/B - Pass Details

Date: 08 December 2021
Orbit: 482 x 652 km, 97.9° (Epoch: 16 January)

Event Time Altitude Azimuth Distance (km) Brightness Sun altitude
Rises 12:02:59 0° 7° (N) 2,553 6.1 -10.7°
Reaches altitude 10° 12:05:04 10° 3° (N) 1,674 5.1 -10.3°
Maximum altitude 12:08:34 57° 285° (WNW) 586 2.6 -9.7°
Drops below altitude 10° 12:12:09 10° 206° (SSW) 1,706 5.3 -9.0°
Sets 12:14:17 0° 202° (SSW) 2,607 6.3 -8.6°
